User: anonymous   Login
Location: Cantarrana
(10.3575°N, 66.9340°W)
Time: 12:29:09
(UTC+00:00)
Language:

Cosmos 1536 - Orbit

View from above orbital plane
View from above orbital plane
View from above satellite
View from above satellite

Ground track
Ground track

The orbit data is extracted from the following two-line orbital elements,

1 14699U 84013A   22142.91877818  .00002558  00000-0  17090-3 0  9995
2 14699  82.5270  24.8447 0013463  38.1027 322.1150 15.06521224 62888
Epoch (UTC): 22 May 2022 22:03:02
Eccentricity: 0.0013463
inclination: 82.5270°
perigee height: 537 km
apogee height: 556 km
right ascension of ascending node: 24.8447°
argument of perigee: 38.1027°
revolutions per day: 15.06521224
mean anomaly at epoch: 322.1150°
orbit number at epoch: 6288

The dashed part of the orbit path shows where the satellite is in the earth's shadow,  

DLR